Location: Bli��� Lhota
(48.7570°N, 14.0120°E)
Time: 09:22:55
(UTC+00:00)

Cosmos 2278 Rocket - Pass Details

Date: 18 September 2020
Orbit: 841 x 845 km, 71.0° (Epoch: 27 October)

Event Time Altitude Azimuth Distance (km) Brightness Sun altitude
Exits shadow 21:22:13 25° 20° (NNE) 1,630 3.9 -35.7°
Drops below altitude 10° 21:24:32 10° 25° (NNE) 2,470 5.0 -35.9°
Sets 21:27:00 0° 28° (NNE) 3,409 5.7 -36.1°
